Time,TemperatureF,DewpointF,PressureIn,WindDirection,WindDirectionDegrees,WindSpeedMPH,WindSpeedGustMPH,Humidity,HourlyPrecipIn,Conditions,Clouds,dailyrainin,SoftwareType,DateUTC
2013-05-11 00:01:00,68.1,63.1,29.88,SW,227,0.0,0.0,84,0.00,,CLR,0.00,VWS V14.00,2013-05-11 04:01:00,
2013-05-11 00:06:00,68.1,63.1,29.88,SW,227,0.0,0.0,84,0.00,,CLR,0.00,VWS V14.00,2013-05-11 04:06:00,
2013-05-11 00:11:00,68.1,63.1,29.88,SW,227,0.0,0.0,84,0.00,,CLR,0.00,VWS V14.00,2013-05-11 04:11:00,
2013-05-11 00:16:00,68.0,63.3,29.88,SW,226,0.0,0.0,85,0.00,,CLR,0.00,VWS V14.00,2013-05-11 04:16:00,
2013-05-11 00:21:00,67.9,63.2,29.88,SW,227,0.0,1.0,85,0.00,,CLR,0.00,VWS V14.00,2013-05-11 04:21:00,
2013-05-11 00:26:00,67.7,63.0,29.88,SW,227,0.0,1.0,85,0.00,,CLR,0.00,VWS V14.00,2013-05-11 04:26:00,
2013-05-11 00:31:00,67.6,62.9,29.88,SW,226,0.0,0.0,85,0.00,,CLR,0.00,VWS V14.00,2013-05-11 04:31:00,
2013-05-11 00:36:00,67.6,62.9,29.88,SW,227,0.0,0.0,85,0.00,,CLR,0.00,VWS V14.00,2013-05-11 04:36:00,
2013-05-11 00:41:00,67.6,62.9,29.88,SW,227,0.0,1.0,85,0.00,,CLR,0.00,VWS V14.00,2013-05-11 04:41:00,
2013-05-11 00:46:00,67.6,62.9,29.88,SW,227,0.0,1.0,85,0.00,,CLR,0.00,VWS V14.00,2013-05-11 04:46:00,
2013-05-11 00:51:00,67.5,63.2,29.88,SW,226,1.0,1.0,86,0.00,,CLR,0.00,VWS V14.00,2013-05-11 04:51:00,
2013-05-11 00:56:00,67.5,63.2,29.88,SW,226,0.0,1.0,86,0.00,,CLR,0.00,VWS V14.00,2013-05-11 04:56:00,
2013-05-11 01:01:00,67.3,63.0,29.88,SW,227,0.0,0.0,86,0.00,,CLR,0.00,VWS V14.00,2013-05-11 05:01:00,
2013-05-11 01:06:00,67.2,62.9,29.88,SW,226,0.0,1.0,86,0.00,,CLR,0.00,VWS V14.00,2013-05-11 05:06:00,
2013-05-11 01:11:00,67.1,63.1,29.88,SW,226,0.0,1.0,87,0.00,,CLR,0.00,VWS V14.00,2013-05-11 05:11:00,
2013-05-11 01:16:00,67.0,63.0,29.88,SW,226,0.0,1.0,87,0.00,,CLR,0.00,VWS V14.00,2013-05-11 05:16:00,
2013-05-11 01:21:00,66.9,62.9,29.88,SW,227,0.0,1.0,87,0.00,,CLR,0.00,VWS V14.00,2013-05-11 05:21:00,
2013-05-11 01:26:00,66.9,62.9,29.88,SW,227,0.0,1.0,87,0.00,,CLR,0.00,VWS V14.00,2013-05-11 05:26:00,
2013-05-11 01:31:00,66.8,62.8,29.87,SW,227,0.0,0.0,87,0.00,,CLR,0.00,VWS V14.00,2013-05-11 05:31:00,
2013-05-11 01:36:00,66.7,62.7,29.87,SW,226,0.0,0.0,87,0.00,,CLR,0.00,VWS V14.00,2013-05-11 05:36:00,
2013-05-11 01:41:00,66.6,62.6,29.87,SW,227,0.0,0.0,87,0.00,,CLR,0.00,VWS V14.00,2013-05-11 05:41:00,
2013-05-11 01:46:00,66.6,62.6,29.87,SW,227,0.0,0.0,87,0.00,,CLR,0.00,VWS V14.00,2013-05-11 05:46:00,
2013-05-11 01:51:00,66.6,62.6,29.87,SW,227,0.0,0.0,87,0.00,,CLR,0.00,VWS V14.00,2013-05-11 05:51:00,
2013-05-11 01:56:00,66.5,62.5,29.87,SW,226,0.0,0.0,87,0.00,,CLR,0.00,VWS V14.00,2013-05-11 05:56:00,
2013-05-11 02:01:00,66.5,62.5,29.86,SW,227,0.0,1.0,87,0.00,,CLR,0.00,VWS V14.00,2013-05-11 06:01:00,
2013-05-11 02:06:00,66.5,62.5,29.86,SW,227,0.0,1.0,87,0.00,,CLR,0.00,VWS V14.00,2013-05-11 06:06:00,
2013-05-11 02:11:00,66.4,62.4,29.86,SW,227,0.0,1.0,87,0.00,,CLR,0.00,VWS V14.00,2013-05-11 06:11:00,
2013-05-11 02:16:00,66.4,62.4,29.85,SW,227,0.0,1.0,87,0.00,,CLR,0.00,VWS V14.00,2013-05-11 06:16:00,
2013-05-11 02:21:00,66.4,62.4,29.85,SW,226,0.0,1.0,87,0.00,,CLR,0.00,VWS V14.00,2013-05-11 06:21:00,
2013-05-11 02:26:00,66.5,62.5,29.85,SW,226,0.0,1.0,87,0.00,,CLR,0.00,VWS V14.00,2013-05-11 06:26:00,
2013-05-11 02:31:00,66.5,62.2,29.85,SW,227,0.0,0.0,86,0.00,,CLR,0.00,VWS V14.00,2013-05-11 06:31:00,
2013-05-11 02:36:00,66.4,62.1,29.85,SW,227,0.0,0.0,86,0.00,,CLR,0.00,VWS V14.00,2013-05-11 06:36:00,
2013-05-11 02:41:00,66.4,62.1,29.85,SW,226,0.0,1.0,86,0.00,,CLR,0.00,VWS V14.00,2013-05-11 06:41:00,
2013-05-11 02:46:00,66.4,62.1,29.85,SW,226,0.0,1.0,86,0.00,,CLR,0.00,VWS V14.00,2013-05-11 06:46:00,
2013-05-11 02:51:00,66.3,62.0,29.85,SW,227,0.0,1.0,86,0.00,,CLR,0.00,VWS V14.00,2013-05-11 06:51:00,
2013-05-11 02:56:00,66.3,62.0,29.85,SW,227,0.0,1.0,86,0.00,,CLR,0.00,VWS V14.00,2013-05-11 06:56:00,
2013-05-11 03:01:00,66.2,61.9,29.84,SW,227,0.0,1.0,86,0.00,,CLR,0.00,VWS V14.00,2013-05-11 07:01:00,
2013-05-11 03:06:00,66.1,61.8,29.84,SW,227,0.0,1.0,86,0.00,,CLR,0.00,VWS V14.00,2013-05-11 07:06:00,
2013-05-11 03:11:00,66.1,61.8,29.84,SW,226,0.0,1.0,86,0.00,,CLR,0.00,VWS V14.00,2013-05-11 07:11:00,
2013-05-11 03:15:00,65.9,61.6,29.83,SW,226,0.0,1.0,86,0.00,,CLR,0.00,VWS V14.00,2013-05-11 07:15:00,
2013-05-11 03:20:00,65.8,61.8,29.83,SW,227,0.0,1.0,87,0.00,,CLR,0.00,VWS V14.00,2013-05-11 07:20:00,
2013-05-11 03:25:00,65.7,61.7,29.83,SW,226,0.0,1.0,87,0.00,,CLR,0.00,VWS V14.00,2013-05-11 07:25:00,
2013-05-11 03:30:00,65.6,61.6,29.83,SW,227,0.0,0.0,87,0.00,,CLR,0.00,VWS V14.00,2013-05-11 07:30:00,
2013-05-11 03:35:00,65.5,61.5,29.83,SW,226,0.0,0.0,87,0.00,,CLR,0.00,VWS V14.00,2013-05-11 07:35:00,
2013-05-11 03:41:00,65.4,61.4,29.83,SW,227,0.0,0.0,87,0.00,,CLR,0.00,VWS V14.00,2013-05-11 07:41:00,
2013-05-11 03:45:00,65.3,61.3,29.83,SW,226,0.0,0.0,87,0.00,,CLR,0.00,VWS V14.00,2013-05-11 07:45:00,
2013-05-11 03:51:00,65.4,61.4,29.83,SW,226,0.0,1.0,87,0.00,,CLR,0.00,VWS V14.00,2013-05-11 07:51:00,
2013-05-11 03:55:00,65.4,61.4,29.83,SW,227,0.0,1.0,87,0.00,,CLR,0.00,VWS V14.00,2013-05-11 07:55:00,
2013-05-11 04:00:00,65.5,61.5,29.83,SW,227,0.0,1.0,87,0.00,,CLR,0.00,VWS V14.00,2013-05-11 08:00:00,
2013-05-11 04:05:00,65.5,61.2,29.83,SW,227,0.0,2.0,86,0.00,,CLR,0.00,VWS V14.00,2013-05-11 08:05:00,
2013-05-11 04:10:00,65.6,61.3,29.83,SW,226,4.0,4.0,86,0.00,,CLR,0.00,VWS V14.00,2013-05-11 08:10:00,
2013-05-11 04:15:00,65.6,61.3,29.83,WSW,244,0.0,4.0,86,0.00,,CLR,0.00,VWS V14.00,2013-05-11 08:15:00,
2013-05-11 04:20:00,65.7,61.1,29.83,WSW,244,0.0,4.0,85,0.00,,CLR,0.00,VWS V14.00,2013-05-11 08:20:00,
2013-05-11 04:25:00,65.8,61.5,29.83,SW,222,0.0,4.0,86,0.00,,CLR,0.00,VWS V14.00,2013-05-11 08:25:00,
2013-05-11 04:30:00,65.8,61.2,29.84,SW,224,0.0,1.0,85,0.00,,CLR,0.00,VWS V14.00,2013-05-11 08:30:00,
2013-05-11 04:35:00,65.9,61.3,29.84,SW,214,0.0,4.0,85,0.00,,CLR,0.00,VWS V14.00,2013-05-11 08:35:00,
2013-05-11 04:40:00,65.9,61.3,29.84,SW,214,0.0,4.0,85,0.00,,CLR,0.00,VWS V14.00,2013-05-11 08:40:00,
2013-05-11 04:45:00,65.8,61.2,29.83,SW,214,0.0,4.0,85,0.00,,CLR,0.00,VWS V14.00,2013-05-11 08:45:00,
2013-05-11 04:50:00,65.8,61.2,29.83,SW,214,0.0,4.0,85,0.00,,CLR,0.00,VWS V14.00,2013-05-11 08:50:00,
2013-05-11 04:55:00,65.7,61.1,29.83,SW,214,1.0,4.0,85,0.00,,CLR,0.00,VWS V14.00,2013-05-11 08:55:00,
2013-05-11 05:00:00,65.6,61.0,29.83,SSW,211,1.0,3.0,85,0.00,,CLR,0.00,VWS V14.00,2013-05-11 09:00:00,
2013-05-11 05:05:00,65.5,60.9,29.83,SSW,211,0.0,3.0,85,0.00,,CLR,0.00,VWS V14.00,2013-05-11 09:05:00,
2013-05-11 05:10:00,65.4,61.1,29.83,WSW,240,3.0,5.0,86,0.00,,CLR,0.00,VWS V14.00,2013-05-11 09:10:00,
2013-05-11 05:15:00,65.3,61.0,29.83,SSW,212,3.0,5.0,86,0.00,,CLR,0.00,VWS V14.00,2013-05-11 09:15:00,
2013-05-11 05:20:00,65.2,60.6,29.83,WSW,248,0.0,5.0,85,0.00,,CLR,0.00,VWS V14.00,2013-05-11 09:20:00,
2013-05-11 05:25:00,65.2,60.6,29.83,WSW,248,0.0,5.0,85,0.00,,CLR,0.00,VWS V14.00,2013-05-11 09:25:00,
2013-05-11 05:30:00,65.0,60.4,29.82,WSW,248,0.0,2.0,85,0.00,,CLR,0.00,VWS V14.00,2013-05-11 09:30:00,
2013-05-11 05:35:00,64.9,60.3,29.82,WSW,248,0.0,2.0,85,0.00,,CLR,0.00,VWS V14.00,2013-05-11 09:35:00,
2013-05-11 05:40:00,64.8,60.2,29.82,WSW,239,0.0,4.0,85,0.00,,CLR,0.00,VWS V14.00,2013-05-11 09:40:00,
2013-05-11 05:45:00,64.7,60.1,29.82,WSW,237,2.0,4.0,85,0.00,,CLR,0.00,VWS V14.00,2013-05-11 09:45:00,
2013-05-11 05:50:00,64.6,60.0,29.82,SW,225,0.0,4.0,85,0.00,,CLR,0.00,VWS V14.00,2013-05-11 09:50:00,
2013-05-11 05:56:00,64.5,60.2,29.82,SW,225,1.0,4.0,86,0.00,,CLR,0.00,VWS V14.00,2013-05-11 09:56:00,
2013-05-11 06:01:00,64.3,60.0,29.82,SW,214,2.0,4.0,86,0.00,,CLR,0.00,VWS V14.00,2013-05-11 10:01:00,
2013-05-11 06:06:00,64.2,59.9,29.82,SW,216,0.0,4.0,86,0.00,,CLR,0.00,VWS V14.00,2013-05-11 10:06:00,
2013-05-11 06:11:00,64.1,59.8,29.82,SW,234,0.0,4.0,86,0.00,,CLR,0.00,VWS V14.00,2013-05-11 10:11:00,
2013-05-11 06:16:00,64.0,60.1,29.82,SW,236,0.0,4.0,87,0.00,,CLR,0.00,VWS V14.00,2013-05-11 10:16:00,
2013-05-11 06:21:00,63.9,60.0,29.82,WSW,238,2.0,4.0,87,0.00,,CLR,0.00,VWS V14.00,2013-05-11 10:21:00,
2013-05-11 06:26:00,63.8,59.9,29.82,WSW,237,2.0,4.0,87,0.00,,CLR,0.00,VWS V14.00,2013-05-11 10:26:00,
2013-05-11 06:31:00,63.6,59.7,29.83,SW,230,0.0,2.0,87,0.00,,CLR,0.00,VWS V14.00,2013-05-11 10:31:00,
2013-05-11 06:36:00,63.5,59.9,29.83,SW,229,0.0,4.0,88,0.00,,CLR,0.00,VWS V14.00,2013-05-11 10:36:00,
2013-05-11 06:41:00,63.2,59.6,29.83,SW,235,3.0,4.0,88,0.00,,CLR,0.00,VWS V14.00,2013-05-11 10:41:00,
2013-05-11 06:46:00,63.1,59.5,29.83,SW,236,0.0,4.0,88,0.00,,CLR,0.00,VWS V14.00,2013-05-11 10:46:00,
2013-05-11 06:51:00,63.0,59.7,29.83,SW,235,0.0,4.0,89,0.00,,CLR,0.00,VWS V14.00,2013-05-11 10:51:00,
2013-05-11 06:56:00,62.9,59.6,29.83,SW,235,0.0,4.0,89,0.00,,CLR,0.00,VWS V14.00,2013-05-11 10:56:00,
2013-05-11 07:01:00,62.9,59.6,29.83,SW,235,0.0,1.0,89,0.00,,CLR,0.00,VWS V14.00,2013-05-11 11:01:00,
2013-05-11 07:06:00,62.8,59.8,29.83,SW,235,0.0,1.0,90,0.00,,CLR,0.00,VWS V14.00,2013-05-11 11:06:00,
2013-05-11 07:11:00,62.7,59.7,29.83,SW,235,0.0,1.0,90,0.00,,CLR,0.00,VWS V14.00,2013-05-11 11:11:00,
2013-05-11 07:16:00,62.6,59.6,29.83,SW,235,0.0,2.0,90,0.00,,CLR,0.00,VWS V14.00,2013-05-11 11:16:00,
2013-05-11 07:21:00,62.6,59.6,29.83,SW,235,0.0,2.0,90,0.00,,CLR,0.00,VWS V14.00,2013-05-11 11:21:00,
2013-05-11 07:26:00,62.7,59.7,29.83,SW,235,1.0,3.0,90,0.00,,CLR,0.00,VWS V14.00,2013-05-11 11:26:00,
2013-05-11 07:31:00,62.8,59.8,29.83,SW,235,0.0,0.0,90,0.00,,CLR,0.00,VWS V14.00,2013-05-11 11:31:00,
2013-05-11 07:36:00,62.9,59.9,29.83,SW,235,0.0,1.0,90,0.00,,CLR,0.00,VWS V14.00,2013-05-11 11:36:00,
2013-05-11 07:41:00,63.0,60.0,29.83,SW,235,1.0,1.0,90,0.00,,CLR,0.00,VWS V14.00,2013-05-11 11:41:00,
2013-05-11 07:46:00,63.2,60.2,29.82,SW,235,1.0,2.0,90,0.00,,CLR,0.00,VWS V14.00,2013-05-11 11:46:00,
2013-05-11 07:51:00,63.4,60.4,29.82,SW,235,0.0,2.0,90,0.00,,CLR,0.00,VWS V14.00,2013-05-11 11:51:00,
2013-05-11 07:56:00,63.8,60.5,29.82,SW,226,1.0,4.0,89,0.00,,CLR,0.00,VWS V14.00,2013-05-11 11:56:00,
2013-05-11 08:01:00,64.1,60.8,29.83,WSW,238,0.0,5.0,89,0.00,,CLR,0.00,VWS V14.00,2013-05-11 12:01:00,
2013-05-11 08:06:00,64.5,61.2,29.83,WSW,238,1.0,5.0,89,0.00,,CLR,0.00,VWS V14.00,2013-05-11 12:06:00,
2013-05-11 08:11:00,64.7,61.1,29.83,SW,217,2.0,5.0,88,0.00,,CLR,0.00,VWS V14.00,2013-05-11 12:11:00,
2013-05-11 08:16:00,65.2,61.2,29.83,SW,222,5.0,7.0,87,0.00,,CLR,0.00,VWS V14.00,2013-05-11 12:16:00,
2013-05-11 08:21:00,65.5,61.2,29.83,SW,226,1.0,7.0,86,0.00,,CLR,0.00,VWS V14.00,2013-05-11 12:21:00,
2013-05-11 08:26:00,65.8,61.5,29.83,SW,217,2.0,7.0,86,0.00,,CLR,0.00,VWS V14.00,2013-05-11 12:26:00,
2013-05-11 08:31:00,66.1,61.8,29.83,SW,233,0.0,3.0,86,0.00,,CLR,0.00,VWS V14.00,2013-05-11 12:31:00,
2013-05-11 08:36:00,66.5,62.2,29.83,SW,236,1.0,3.0,86,0.00,,CLR,0.00,VWS V14.00,2013-05-11 12:36:00,
2013-05-11 08:41:00,67.0,62.3,29.83,SSW,212,1.0,3.0,85,0.00,,CLR,0.00,VWS V14.00,2013-05-11 12:41:00,
2013-05-11 08:46:00,67.5,62.5,29.83,SW,224,0.0,6.0,84,0.00,,CLR,0.00,VWS V14.00,2013-05-11 12:46:00,
2013-05-11 08:51:00,67.9,62.5,29.83,SW,215,1.0,7.0,83,0.00,,CLR,0.00,VWS V14.00,2013-05-11 12:51:00,
2013-05-11 08:56:00,68.2,62.8,29.83,South,179,0.0,10.0,83,0.00,,CLR,0.00,VWS V14.00,2013-05-11 12:56:00,
2013-05-11 09:01:00,68.5,62.5,29.83,SW,229,4.0,7.0,81,0.00,,CLR,0.00,VWS V14.00,2013-05-11 13:01:00,
2013-05-11 09:06:00,68.9,62.8,29.83,SW,227,0.0,9.0,81,0.00,,CLR,0.00,VWS V14.00,2013-05-11 13:06:00,
2013-05-11 09:11:00,69.4,63.3,29.83,SW,220,0.0,9.0,81,0.00,,CLR,0.00,VWS V14.00,2013-05-11 13:11:00,
2013-05-11 09:16:00,69.7,62.9,29.83,SW,222,2.0,9.0,79,0.00,,CLR,0.00,VWS V14.00,2013-05-11 13:16:00,
2013-05-11 09:21:00,70.1,63.3,29.83,SW,215,1.0,12.0,79,0.00,,CLR,0.00,VWS V14.00,2013-05-11 13:21:00,
2013-05-11 09:26:00,70.4,63.2,29.83,WNW,287,0.0,12.0,78,0.00,,CLR,0.00,VWS V14.00,2013-05-11 13:26:00,
2013-05-11 09:31:00,70.7,63.5,29.83,SSW,213,2.0,10.0,78,0.00,,CLR,0.00,VWS V14.00,2013-05-11 13:31:00,
2013-05-11 09:36:00,70.9,63.3,29.83,SW,232,0.0,10.0,77,0.00,,CLR,0.00,VWS V14.00,2013-05-11 13:36:00,
2013-05-11 09:41:00,71.3,64.1,29.83,SSW,205,0.0,10.0,78,0.00,,CLR,0.00,VWS V14.00,2013-05-11 13:41:00,
2013-05-11 09:46:00,71.7,63.4,29.83,SW,233,0.0,10.0,75,0.00,,CLR,0.00,VWS V14.00,2013-05-11 13:46:00,
2013-05-11 09:51:00,72.0,63.7,29.83,SW,224,2.0,10.0,75,0.00,,CLR,0.00,VWS V14.00,2013-05-11 13:51:00,
2013-05-11 09:56:00,72.4,63.7,29.83,West,277,0.0,10.0,74,0.00,,CLR,0.00,VWS V14.00,2013-05-11 13:56:00,
2013-05-11 10:01:00,72.6,63.8,29.83,SW,214,0.0,9.0,74,0.00,,CLR,0.00,VWS V14.00,2013-05-11 14:01:00,
2013-05-11 10:06:00,72.5,63.0,29.83,SW,224,5.0,9.0,72,0.00,,CLR,0.00,VWS V14.00,2013-05-11 14:06:00,
2013-05-11 10:11:00,72.8,63.7,29.83,WSW,253,0.0,9.0,73,0.00,,CLR,0.00,VWS V14.00,2013-05-11 14:11:00,
2013-05-11 10:16:00,73.2,64.0,29.83,SW,223,0.0,9.0,73,0.00,,CLR,0.00,VWS V14.00,2013-05-11 14:16:00,
2013-05-11 10:21:00,73.7,63.7,29.83,WSW,240,2.0,9.0,71,0.00,,CLR,0.00,VWS V14.00,2013-05-11 14:21:00,
2013-05-11 10:26:00,74.0,64.4,29.83,SW,236,1.0,9.0,72,0.00,,CLR,0.00,VWS V14.00,2013-05-11 14:26:00,
2013-05-11 10:31:00,74.1,64.5,29.82,SW,217,1.0,6.0,72,0.00,,CLR,0.00,VWS V14.00,2013-05-11 14:31:00,
2013-05-11 10:36:00,74.4,64.4,29.82,SW,228,0.0,11.0,71,0.00,,CLR,0.00,VWS V14.00,2013-05-11 14:36:00,
2013-05-11 10:41:00,74.8,64.4,29.82,SW,235,0.0,11.0,70,0.00,,CLR,0.00,VWS V14.00,2013-05-11 14:41:00,
2013-05-11 10:46:00,75.1,64.2,29.83,SW,236,4.0,11.0,69,0.00,,CLR,0.00,VWS V14.00,2013-05-11 14:46:00,
2013-05-11 10:51:00,75.0,63.7,29.83,SW,226,0.0,11.0,68,0.00,,CLR,0.00,VWS V14.00,2013-05-11 14:51:00,
2013-05-11 10:56:00,75.2,64.3,29.83,SW,224,0.0,11.0,69,0.00,,CLR,0.00,VWS V14.00,2013-05-11 14:56:00,
2013-05-11 11:01:00,75.3,64.4,29.82,SW,229,0.0,4.0,69,0.00,,CLR,0.00,VWS V14.00,2013-05-11 15:01:00,
2013-05-11 11:06:00,75.5,65.4,29.82,SW,228,2.0,5.0,71,0.00,,CLR,0.00,VWS V14.00,2013-05-11 15:06:00,
2013-05-11 11:11:00,75.4,64.9,29.82,SW,225,0.0,5.0,70,0.00,,CLR,0.00,VWS V14.00,2013-05-11 15:11:00,
2013-05-11 11:16:00,75.3,64.8,29.82,SW,231,0.0,7.0,70,0.00,,CLR,0.00,VWS V14.00,2013-05-11 15:16:00,
2013-05-11 11:21:00,75.4,65.3,29.82,SW,218,0.0,7.0,71,0.00,,CLR,0.00,VWS V14.00,2013-05-11 15:21:00,
2013-05-11 11:26:00,75.2,64.3,29.82,SW,223,1.0,9.0,69,0.00,,CLR,0.00,VWS V14.00,2013-05-11 15:26:00,
2013-05-11 11:31:00,75.3,64.4,29.82,West,270,1.0,5.0,69,0.00,,CLR,0.00,VWS V14.00,2013-05-11 15:31:00,
2013-05-11 11:36:00,76.1,66.8,29.82,South,176,0.0,5.0,73,0.00,,CLR,0.00,VWS V14.00,2013-05-11 15:36:00,
2013-05-11 11:41:00,76.5,65.2,29.82,SSW,193,0.0,6.0,68,0.00,,CLR,0.00,VWS V14.00,2013-05-11 15:41:00,
2013-05-11 11:46:00,76.1,65.6,29.81,West,277,0.0,6.0,70,0.00,,CLR,0.00,VWS V14.00,2013-05-11 15:46:00,
2013-05-11 11:51:00,75.5,65.4,29.81,SW,219,3.0,6.0,71,0.00,,CLR,0.00,VWS V14.00,2013-05-11 15:51:00,
2013-05-11 11:56:00,74.7,64.3,29.81,SW,228,2.0,6.0,70,0.00,,CLR,0.00,VWS V14.00,2013-05-11 15:56:00,
2013-05-11 12:01:00,74.3,64.3,29.82,SW,235,0.0,5.0,71,0.00,,CLR,0.00,VWS V14.00,2013-05-11 16:01:00,
2013-05-11 12:06:00,74.0,63.6,29.82,SW,234,1.0,5.0,70,0.00,,CLR,0.00,VWS V14.00,2013-05-11 16:06:00,
2013-05-11 12:11:00,74.2,64.2,29.82,SW,231,0.0,5.0,71,0.00,,CLR,0.00,VWS V14.00,2013-05-11 16:11:00,
2013-05-11 12:16:00,74.9,64.5,29.81,SW,232,0.0,5.0,70,0.00,,CLR,0.00,VWS V14.00,2013-05-11 16:16:00,
2013-05-11 12:21:00,75.9,65.8,29.81,SW,236,0.0,5.0,71,0.00,,CLR,0.00,VWS V14.00,2013-05-11 16:21:00,
2013-05-11 12:26:00,76.8,65.4,29.81,SW,231,1.0,5.0,68,0.00,,CLR,0.00,VWS V14.00,2013-05-11 16:26:00,
2013-05-11 12:31:00,77.0,65.2,29.81,SW,215,2.0,7.0,67,0.00,,CLR,0.00,VWS V14.00,2013-05-11 16:31:00,
2013-05-11 12:36:00,77.0,64.3,29.81,WSW,241,2.0,7.0,65,0.00,,CLR,0.00,VWS V14.00,2013-05-11 16:36:00,
2013-05-11 12:41:00,77.2,65.8,29.81,SW,229,0.0,7.0,68,0.00,,CLR,0.00,VWS V14.00,2013-05-11 16:41:00,
2013-05-11 12:46:00,77.3,64.6,29.81,SW,219,0.0,7.0,65,0.00,,CLR,0.00,VWS V14.00,2013-05-11 16:46:00,
2013-05-11 12:51:00,77.5,64.8,29.81,SW,232,3.0,10.0,65,0.00,,CLR,0.00,VWS V14.00,2013-05-11 16:51:00,
2013-05-11 12:56:00,77.9,65.6,29.81,South,190,0.0,10.0,66,0.00,,CLR,0.00,VWS V14.00,2013-05-11 16:56:00,
2013-05-11 13:01:00,78.7,65.5,29.80,WSW,240,0.0,3.0,64,0.00,,CLR,0.00,VWS V14.00,2013-05-11 17:01:00,
2013-05-11 13:06:00,78.7,65.1,29.80,SW,219,2.0,7.0,63,0.00,,CLR,0.00,VWS V14.00,2013-05-11 17:06:00,
2013-05-11 13:11:00,78.2,64.6,29.80,SSW,197,2.0,8.0,63,0.00,,CLR,0.00,VWS V14.00,2013-05-11 17:11:00,
2013-05-11 13:16:00,77.9,65.2,29.80,SSW,207,5.0,8.0,65,0.00,,CLR,0.00,VWS V14.00,2013-05-11 17:16:00,
2013-05-11 13:21:00,77.4,64.3,29.80,SW,228,3.0,10.0,64,0.00,,CLR,0.00,VWS V14.00,2013-05-11 17:21:00,
2013-05-11 13:26:00,77.3,65.1,29.80,SW,215,3.0,10.0,66,0.00,,CLR,0.00,VWS V14.00,2013-05-11 17:26:00,
2013-05-11 13:31:00,77.1,65.3,29.79,SW,218,0.0,3.0,67,0.00,,CLR,0.00,VWS V14.00,2013-05-11 17:31:00,
2013-05-11 13:36:00,77.2,65.8,29.79,SSW,212,1.0,6.0,68,0.00,,CLR,0.00,VWS V14.00,2013-05-11 17:36:00,
2013-05-11 13:41:00,77.1,64.9,29.79,SSW,200,3.0,6.0,66,0.00,,CLR,0.00,VWS V14.00,2013-05-11 17:41:00,
2013-05-11 13:46:00,76.5,64.3,29.79,SSW,210,5.0,9.0,66,0.00,,CLR,0.00,VWS V14.00,2013-05-11 17:46:00,
2013-05-11 13:51:00,75.9,63.7,29.79,SW,224,3.0,10.0,66,0.00,,CLR,0.00,VWS V14.00,2013-05-11 17:51:00,
2013-05-11 13:56:00,75.5,63.8,29.79,SW,225,2.0,10.0,67,0.00,,CLR,0.00,VWS V14.00,2013-05-11 17:56:00,
2013-05-11 14:01:00,75.4,63.7,29.79,WSW,239,1.0,9.0,67,0.00,,CLR,0.00,VWS V14.00,2013-05-11 18:01:00,
2013-05-11 14:06:00,75.5,64.2,29.79,SW,229,1.0,9.0,68,0.00,,CLR,0.00,VWS V14.00,2013-05-11 18:06:00,
2013-05-11 14:11:00,75.8,65.3,29.79,SW,218,0.0,9.0,70,0.00,,CLR,0.00,VWS V14.00,2013-05-11 18:11:00,
2013-05-11 14:16:00,76.2,66.9,29.78,SW,221,0.0,9.0,73,0.00,,CLR,0.00,VWS V14.00,2013-05-11 18:16:00,
2013-05-11 14:21:00,76.7,67.0,29.78,SW,229,2.0,9.0,72,0.00,,CLR,0.00,VWS V14.00,2013-05-11 18:21:00,
2013-05-11 14:26:00,76.7,65.8,29.78,SW,234,4.0,9.0,69,0.00,,CLR,0.00,VWS V14.00,2013-05-11 18:26:00,
2013-05-11 14:31:00,76.6,65.3,29.79,SSW,201,1.0,10.0,68,0.00,,CLR,0.00,VWS V14.00,2013-05-11 18:31:00,
2013-05-11 14:36:00,76.8,65.4,29.79,South,184,0.0,10.0,68,0.00,,CLR,0.00,VWS V14.00,2013-05-11 18:36:00,
2013-05-11 14:41:00,77.0,65.2,29.79,SW,228,3.0,11.0,67,0.00,,CLR,0.00,VWS V14.00,2013-05-11 18:41:00,
2013-05-11 14:46:00,76.9,64.7,29.77,WSW,238,1.0,12.0,66,0.00,,CLR,0.00,VWS V14.00,2013-05-11 18:46:00,
2013-05-11 14:51:00,76.9,65.1,29.77,SW,236,2.0,12.0,67,0.00,,CLR,0.00,VWS V14.00,2013-05-11 18:51:00,
2013-05-11 14:56:00,77.3,66.3,29.77,WSW,247,0.0,12.0,69,0.00,,CLR,0.00,VWS V14.00,2013-05-11 18:56:00,
2013-05-11 15:01:00,77.3,65.5,29.77,SSW,201,2.0,6.0,67,0.00,,CLR,0.00,VWS V14.00,2013-05-11 19:01:00,
2013-05-11 15:06:00,77.3,64.6,29.77,SW,226,1.0,8.0,65,0.00,,CLR,0.00,VWS V14.00,2013-05-11 19:06:00,
2013-05-11 15:11:00,77.1,64.9,29.77,South,176,5.0,9.0,66,0.00,,CLR,0.00,VWS V14.00,2013-05-11 19:11:00,
2013-05-11 15:16:00,77.2,65.4,29.78,SW,219,0.0,9.0,67,0.00,,CLR,0.00,VWS V14.00,2013-05-11 19:16:00,
2013-05-11 15:21:00,77.2,65.0,29.78,SW,231,5.0,15.0,66,0.00,,CLR,0.00,VWS V14.00,2013-05-11 19:21:00,
2013-05-11 15:26:00,77.1,66.2,29.78,SW,214,3.0,15.0,69,0.00,,CLR,0.00,VWS V14.00,2013-05-11 19:26:00,
2013-05-11 15:31:00,77.1,65.3,29.76,SSW,205,2.0,5.0,67,0.00,,CLR,0.00,VWS V14.00,2013-05-11 19:31:00,
2013-05-11 15:36:00,77.0,65.2,29.76,SW,221,0.0,19.0,67,0.00,,CLR,0.00,VWS V14.00,2013-05-11 19:36:00,
2013-05-11 15:41:00,76.4,64.2,29.76,SW,214,1.0,19.0,66,0.00,,CLR,0.00,VWS V14.00,2013-05-11 19:41:00,
2013-05-11 15:47:00,76.0,64.7,29.77,SW,221,1.0,19.0,68,0.00,,CLR,0.00,VWS V14.00,2013-05-11 19:47:00,
2013-05-11 15:51:00,76.0,65.1,29.77,SW,223,7.0,19.0,69,0.00,,CLR,0.00,VWS V14.00,2013-05-11 19:51:00,
2013-05-11 15:56:00,76.0,65.9,29.77,SW,217,4.0,19.0,71,0.00,,CLR,0.00,VWS V14.00,2013-05-11 19:56:00,
2013-05-11 16:01:00,75.9,66.2,29.76,SW,226,3.0,4.0,72,0.00,,CLR,0.00,VWS V14.00,2013-05-11 20:01:00,
2013-05-11 16:06:00,75.7,66.0,29.76,SW,227,1.0,10.0,72,0.00,,CLR,0.00,VWS V14.00,2013-05-11 20:06:00,
2013-05-11 16:11:00,75.5,65.4,29.76,SSW,202,3.0,10.0,71,0.00,,CLR,0.00,VWS V14.00,2013-05-11 20:11:00,
2013-05-11 16:16:00,75.1,65.1,29.76,SSW,197,1.0,10.0,71,0.00,,CLR,0.00,VWS V14.00,2013-05-11 20:16:00,
2013-05-11 16:22:00,75.2,66.7,29.76,West,269,2.0,10.0,75,0.00,,CLR,0.00,VWS V14.00,2013-05-11 20:22:00,
2013-05-11 16:27:00,75.2,66.0,29.76,WSW,243,2.0,10.0,73,0.00,,CLR,0.00,VWS V14.00,2013-05-11 20:27:00,
2013-05-11 16:32:00,74.9,65.3,29.76,WSW,241,0.0,4.0,72,0.00,,CLR,0.00,VWS V14.00,2013-05-11 20:32:00,
2013-05-11 16:37:00,74.7,64.7,29.76,SSW,208,5.0,6.0,71,0.00,,CLR,0.00,VWS V14.00,2013-05-11 20:37:00,
2013-05-11 16:42:00,74.5,64.9,29.76,SW,225,3.0,10.0,72,0.00,,CLR,0.00,VWS V14.00,2013-05-11 20:42:00,
2013-05-11 16:47:00,74.4,65.2,29.75,West,274,5.0,10.0,73,0.00,,CLR,0.00,VWS V14.00,2013-05-11 20:47:00,
2013-05-11 16:52:00,74.6,65.8,29.75,SW,223,1.0,10.0,74,0.00,,CLR,0.00,VWS V14.00,2013-05-11 20:52:00,
2013-05-11 16:57:00,75.3,66.4,29.75,WSW,238,4.0,10.0,74,0.00,,CLR,0.00,VWS V14.00,2013-05-11 20:57:00,
2013-05-11 17:02:00,75.8,65.7,29.75,SSW,212,4.0,4.0,71,0.00,,CLR,0.00,VWS V14.00,2013-05-11 21:02:00,
2013-05-11 17:07:00,76.1,66.8,29.75,West,269,3.0,7.0,73,0.00,,CLR,0.00,VWS V14.00,2013-05-11 21:07:00,
2013-05-11 17:12:00,76.3,65.8,29.75,SW,234,3.0,7.0,70,0.00,,CLR,0.00,VWS V14.00,2013-05-11 21:12:00,
2013-05-11 17:17:00,76.2,66.9,29.74,SSW,212,4.0,8.0,73,0.00,,CLR,0.00,VWS V14.00,2013-05-11 21:17:00,
2013-05-11 17:22:00,76.2,66.9,29.74,SW,218,2.0,8.0,73,0.00,,CLR,0.00,VWS V14.00,2013-05-11 21:22:00,
2013-05-11 17:27:00,76.1,66.0,29.74,SSW,200,1.0,10.0,71,0.00,,CLR,0.00,VWS V14.00,2013-05-11 21:27:00,
2013-05-11 17:32:00,76.0,66.3,29.74,SSW,193,2.0,6.0,72,0.00,,CLR,0.00,VWS V14.00,2013-05-11 21:32:00,
2013-05-11 17:37:00,76.0,66.3,29.74,SW,217,14.0,14.0,72,0.00,,CLR,0.00,VWS V14.00,2013-05-11 21:37:00,
2013-05-11 17:42:00,76.0,66.3,29.74,SW,217,1.0,14.0,72,0.00,,CLR,0.00,VWS V14.00,2013-05-11 21:42:00,
2013-05-11 17:47:00,76.0,65.9,29.74,SSW,212,4.0,14.0,71,0.00,,CLR,0.00,VWS V14.00,2013-05-11 21:47:00,
2013-05-11 17:52:00,75.9,65.8,29.74,SSW,208,0.0,14.0,71,0.00,,CLR,0.00,VWS V14.00,2013-05-11 21:52:00,
2013-05-11 17:57:00,75.9,66.2,29.74,SW,236,0.0,14.0,72,0.00,,CLR,0.00,VWS V14.00,2013-05-11 21:57:00,
2013-05-11 18:02:00,75.8,65.7,29.73,South,190,5.0,12.0,71,0.00,,CLR,0.00,VWS V14.00,2013-05-11 22:02:00,
2013-05-11 18:07:00,75.8,66.5,29.73,WSW,243,2.0,12.0,73,0.00,,CLR,0.00,VWS V14.00,2013-05-11 22:07:00,
2013-05-11 18:12:00,75.9,66.2,29.73,SSW,211,4.0,12.0,72,0.00,,CLR,0.00,VWS V14.00,2013-05-11 22:12:00,
2013-05-11 18:17:00,75.9,66.2,29.73,WSW,256,0.0,14.0,72,0.00,,CLR,0.00,VWS V14.00,2013-05-11 22:17:00,
2013-05-11 18:22:00,75.9,66.6,29.73,West,271,3.0,14.0,73,0.00,,CLR,0.00,VWS V14.00,2013-05-11 22:22:00,
2013-05-11 18:27:00,75.6,65.9,29.73,SSW,195,1.0,14.0,72,0.00,,CLR,0.00,VWS V14.00,2013-05-11 22:27:00,
2013-05-11 18:32:00,75.3,65.7,29.72,SSW,208,0.0,5.0,72,0.00,,CLR,0.00,VWS V14.00,2013-05-11 22:32:00,
2013-05-11 18:37:00,75.0,65.4,29.72,SSW,207,2.0,10.0,72,0.00,,CLR,0.00,VWS V14.00,2013-05-11 22:37:00,
2013-05-11 18:42:00,74.8,65.2,29.72,SW,217,2.0,10.0,72,0.00,,CLR,0.00,VWS V14.00,2013-05-11 22:42:00,
2013-05-11 18:47:00,74.4,64.8,29.73,SSW,209,5.0,10.0,72,0.00,,CLR,0.00,VWS V14.00,2013-05-11 22:47:00,
2013-05-11 18:52:00,73.9,64.7,29.73,WSW,238,4.0,10.0,73,0.00,,CLR,0.00,VWS V14.00,2013-05-11 22:52:00,
2013-05-11 18:57:00,73.5,64.3,29.73,SW,236,2.0,12.0,73,0.00,,CLR,0.00,VWS V14.00,2013-05-11 22:57:00,
2013-05-11 19:02:00,73.2,64.4,29.74,SSW,203,1.0,6.0,74,0.00,,CLR,0.00,VWS V14.00,2013-05-11 23:02:00,
2013-05-11 19:07:00,73.0,64.2,29.74,SW,228,0.0,7.0,74,0.00,,CLR,0.00,VWS V14.00,2013-05-11 23:07:00,
2013-05-11 19:12:00,72.8,64.4,29.74,SW,226,4.0,7.0,75,0.00,,CLR,0.00,VWS V14.00,2013-05-11 23:12:00,
2013-05-11 19:17:00,72.8,64.0,29.74,SW,221,1.0,10.0,74,0.00,,CLR,0.00,VWS V14.00,2013-05-11 23:17:00,
2013-05-11 19:22:00,72.8,64.4,29.74,West,277,0.0,10.0,75,0.00,,CLR,0.00,VWS V14.00,2013-05-11 23:22:00,
2013-05-11 19:27:00,72.5,62.6,29.74,NW,304,4.0,15.0,71,0.00,,CLR,0.00,VWS V14.00,2013-05-11 23:27:00,
2013-05-11 19:32:00,71.8,61.9,29.76,NNW,343,10.0,11.0,71,0.00,,CLR,0.00,VWS V14.00,2013-05-11 23:32:00,
2013-05-11 20:03:00,65.6,61.3,29.78,West,271,0.0,1.0,86,0.06,,CLR,0.06,VWS V14.00,2013-05-12 00:03:00,
2013-05-11 20:08:00,64.7,61.1,29.78,West,272,0.0,1.0,88,0.08,,CLR,0.08,VWS V14.00,2013-05-12 00:08:00,
2013-05-11 20:13:00,64.1,60.8,29.77,West,259,0.0,2.0,89,0.08,,CLR,0.08,VWS V14.00,2013-05-12 00:13:00,
2013-05-11 20:18:00,63.6,60.9,29.77,WSW,257,0.0,2.0,91,0.08,,CLR,0.08,VWS V14.00,2013-05-12 00:18:00,
2013-05-11 20:23:00,63.3,60.9,29.77,WSW,257,0.0,2.0,92,0.08,,CLR,0.08,VWS V14.00,2013-05-12 00:23:00,
2013-05-11 20:28:00,63.2,60.8,29.76,WSW,257,0.0,2.0,92,0.08,,CLR,0.08,VWS V14.00,2013-05-12 00:28:00,
2013-05-11 20:33:00,62.9,60.5,29.76,WSW,257,0.0,0.0,92,0.08,,CLR,0.08,VWS V14.00,2013-05-12 00:33:00,
2013-05-11 20:38:00,62.8,60.8,29.76,WSW,257,0.0,0.0,93,0.08,,CLR,0.08,VWS V14.00,2013-05-12 00:38:00,
2013-05-11 20:43:00,62.8,60.8,29.76,WSW,257,0.0,0.0,93,0.09,,CLR,0.09,VWS V14.00,2013-05-12 00:43:00,
2013-05-11 20:48:00,62.8,61.0,29.76,WSW,257,0.0,0.0,94,0.09,,CLR,0.09,VWS V14.00,2013-05-12 00:48:00,
2013-05-11 20:53:00,62.8,61.0,29.76,WSW,257,0.0,0.0,94,0.09,,CLR,0.09,VWS V14.00,2013-05-12 00:53:00,
2013-05-11 20:58:00,62.8,61.0,29.76,WSW,257,0.0,0.0,94,0.09,,CLR,0.09,VWS V14.00,2013-05-12 00:58:00,
2013-05-11 21:03:00,62.7,61.0,29.76,WSW,257,0.0,1.0,94,0.04,,CLR,0.09,VWS V14.00,2013-05-12 01:03:00,
2013-05-11 21:08:00,62.7,61.0,29.76,WSW,257,0.0,1.0,94,0.04,,CLR,0.09,VWS V14.00,2013-05-12 01:08:00,
2013-05-11 21:13:00,62.6,61.2,29.77,WSW,257,0.0,1.0,95,0.04,,CLR,0.09,VWS V14.00,2013-05-12 01:13:00,
2013-05-11 21:18:00,62.5,61.0,29.77,WSW,257,0.0,1.0,95,0.04,,CLR,0.09,VWS V14.00,2013-05-12 01:18:00,
2013-05-11 21:23:00,62.5,61.0,29.77,WSW,257,0.0,1.0,95,0.04,,CLR,0.09,VWS V14.00,2013-05-12 01:23:00,
2013-05-11 21:28:00,62.3,60.8,29.77,WSW,257,0.0,1.0,95,0.04,,CLR,0.09,VWS V14.00,2013-05-12 01:28:00,
2013-05-11 21:33:00,62.3,60.8,29.77,WSW,239,0.0,1.0,95,0.01,,CLR,0.09,VWS V14.00,2013-05-12 01:33:00,
2013-05-11 21:38:00,62.2,60.8,29.77,WSW,240,0.0,1.0,95,0.01,,CLR,0.09,VWS V14.00,2013-05-12 01:38:00,
2013-05-11 21:43:00,62.2,60.8,29.77,WSW,239,0.0,1.0,95,0.01,,CLR,0.09,VWS V14.00,2013-05-12 01:43:00,
2013-05-11 21:48:00,62.2,60.8,29.77,WSW,240,0.0,1.0,95,0.01,,CLR,0.09,VWS V14.00,2013-05-12 01:48:00,
2013-05-11 21:53:00,62.3,60.8,29.77,WSW,239,0.0,1.0,95,0.01,,CLR,0.09,VWS V14.00,2013-05-12 01:53:00,
2013-05-11 21:58:00,62.3,60.8,29.77,WSW,240,0.0,1.0,95,0.01,,CLR,0.09,VWS V14.00,2013-05-12 01:58:00,
2013-05-11 22:03:00,62.3,60.8,29.77,WSW,240,0.0,0.0,95,0.00,,CLR,0.09,VWS V14.00,2013-05-12 02:03:00,
2013-05-11 22:08:00,62.3,60.8,29.77,WSW,240,0.0,0.0,95,0.00,,CLR,0.09,VWS V14.00,2013-05-12 02:08:00,
2013-05-11 22:13:00,62.3,60.8,29.77,WSW,239,0.0,0.0,95,0.00,,CLR,0.09,VWS V14.00,2013-05-12 02:13:00,
2013-05-11 22:18:00,62.4,61.0,29.77,WSW,240,0.0,1.0,95,0.00,,CLR,0.09,VWS V14.00,2013-05-12 02:18:00,
2013-05-11 22:23:00,62.3,60.8,29.77,WSW,240,0.0,1.0,95,0.00,,CLR,0.09,VWS V14.00,2013-05-12 02:23:00,
2013-05-11 22:28:00,62.3,61.2,29.78,WSW,240,0.0,1.0,96,0.00,,CLR,0.09,VWS V14.00,2013-05-12 02:28:00,
2013-05-11 22:33:00,62.3,61.2,29.78,WSW,240,0.0,1.0,96,0.00,,CLR,0.09,VWS V14.00,2013-05-12 02:33:00,
2013-05-11 22:38:00,62.2,61.0,29.78,SW,236,0.0,1.0,96,0.00,,CLR,0.09,VWS V14.00,2013-05-12 02:38:00,
2013-05-11 22:43:00,62.1,61.0,29.78,SW,235,1.0,1.0,96,0.00,,CLR,0.09,VWS V14.00,2013-05-12 02:43:00,
2013-05-11 22:48:00,62.0,60.8,29.78,WSW,245,1.0,2.0,96,0.00,,CLR,0.09,VWS V14.00,2013-05-12 02:48:00,
2013-05-11 22:53:00,62.0,60.8,29.78,SW,219,0.0,2.0,96,0.00,,CLR,0.09,VWS V14.00,2013-05-12 02:53:00,
2013-05-11 22:58:00,61.9,60.8,29.78,SW,219,0.0,2.0,96,0.00,,CLR,0.09,VWS V14.00,2013-05-12 02:58:00,
2013-05-11 23:03:00,61.8,60.4,29.78,SW,221,0.0,1.0,95,0.00,,CLR,0.09,VWS V14.00,2013-05-12 03:03:00,
2013-05-11 23:08:00,61.8,60.7,29.78,SW,231,1.0,2.0,96,0.00,,CLR,0.09,VWS V14.00,2013-05-12 03:08:00,
2013-05-11 23:13:00,61.8,60.7,29.79,WSW,240,0.0,2.0,96,0.00,,CLR,0.09,VWS V14.00,2013-05-12 03:13:00,
2013-05-11 23:18:00,61.7,60.5,29.79,WSW,243,0.0,3.0,96,0.00,,CLR,0.09,VWS V14.00,2013-05-12 03:18:00,
2013-05-11 23:23:00,61.7,60.5,29.79,SW,235,0.0,3.0,96,0.00,,CLR,0.09,VWS V14.00,2013-05-12 03:23:00,
2013-05-11 23:28:00,61.7,60.5,29.79,SW,218,0.0,3.0,96,0.00,,CLR,0.09,VWS V14.00,2013-05-12 03:28:00,
2013-05-11 23:33:00,61.6,60.5,29.79,SW,218,0.0,2.0,96,0.00,,CLR,0.09,VWS V14.00,2013-05-12 03:33:00,
2013-05-11 23:38:00,61.6,60.5,29.79,SW,218,0.0,2.0,96,0.00,,CLR,0.09,VWS V14.00,2013-05-12 03:38:00,
2013-05-11 23:43:00,61.5,60.3,29.78,SW,230,0.0,3.0,96,0.00,,CLR,0.09,VWS V14.00,2013-05-12 03:43:00,
2013-05-11 23:48:00,61.4,60.2,29.78,SW,230,0.0,3.0,96,0.00,,CLR,0.09,VWS V14.00,2013-05-12 03:48:00,
2013-05-11 23:53:00,61.4,60.2,29.78,SW,226,0.0,4.0,96,0.00,,CLR,0.09,VWS V14.00,2013-05-12 03:53:00,
2013-05-11 23:58:00,61.3,60.2,29.78,SW,225,0.0,4.0,96,0.00,,CLR,0.09,VWS V14.00,2013-05-12 03:58:00,